{"data":{"norad_id":42829,"intl_designator":"2017-042E","name":"TECHNOSAT","alt_names":[],"object_type":"PAYLOAD","status":"ACTIVE","operator":null,"country":"GER","launch_date":"2017-07-14","launch_site_code":"TYMSC","launch_vehicle":null,"mission":null,"orbit_class":"UNKNOWN","rcs_meters":null,"size_class":null,"mass_kg":null,"dimensions":null,"purposes":["tech_demo"],"wikipedia_slug":null,"has_3d_model":false,"image_url":null,"decayed_at":null,"tle_current":{"epoch":"2026-09-20T04:19:38.186112Z","epoch_age_seconds":42058,"freshness":"FRESH","line1":"1 42829U 17042E   26263.18030308  .00002833  00000+0  20081-3 0  9990","line2":"2 42829  97.4407  57.3277 0018464 127.3163 232.9750 15.05426030500992","mean_motion":15.0542603,"eccentricity":0.0018464,"inclination_deg":97.4407,"raan_deg":57.3277,"arg_perigee_deg":127.3163,"mean_anomaly_deg":232.975,"bstar":0.00020081,"rev_number":50099,"period_min":95.653985735852,"perigee_km":537.40576678616,"apogee_km":562.99072317883,"semimajor_km":6928.3352449825,"source":"CELESTRAK","updated_at":"2026-09-20T09:00:47.446226Z"}}}